AAL1965 KCLT-MDPC

Flight info

Callsign AAL1965
Flight time N/A
Altitude 35000
Route KWEEN5 PITRW Y436 JAINS L451 LETON L451 IORIO DCT POKEG POKEG1W
Aircraft A321/M-SDE3FGHIRWY/LB1

Departure

Time N/A
Airport Charlotte Douglas International Airport (KCLT)

Arrival

Time 2026-04-30 20:13
Airport Punta Cana International Airport (MDPC)
Time Latitude Longitude Altitude Speed Heading
2026-04-30 17:39 34.08914 -80.79199 27536 ft 450 kts 186°
2026-04-30 17:41 33.83553 -80.77008 29808 ft 466 kts 187°
2026-04-30 17:42 33.77052 -80.76448 30279 ft 471 kts 187°
2026-04-30 17:42 33.67192 -80.75584 31121 ft 473 kts 187°
2026-04-30 17:43 33.60643 -80.75010 31627 ft 475 kts 187°
2026-04-30 17:44 33.50772 -80.71845 32405 ft 519 kts 158°
2026-04-30 17:44 33.42898 -80.62457 33119 ft 548 kts 133°
2026-04-30 17:46 33.31183 -80.44435 34457 ft 546 kts 133°
2026-04-30 17:47 33.21823 -80.30114 34889 ft 545 kts 132°
2026-04-30 17:48 33.05513 -80.05286 34905 ft 542 kts 132°
2026-04-30 17:50 32.86858 -79.77086 34895 ft 543 kts 133°
2026-04-30 17:52 32.73313 -79.55557 34912 ft 546 kts 117°
2026-04-30 17:54 32.61563 -79.19017 34914 ft 546 kts 110°
2026-04-30 17:56 32.50787 -78.85372 34919 ft 545 kts 111°
2026-04-30 17:58 32.42667 -78.60292 34916 ft 544 kts 111°
2026-04-30 18:00 32.31814 -78.27028 34897 ft 541 kts 111°
2026-04-30 18:01 32.24995 -78.06273 34911 ft 541 kts 111°
2026-04-30 18:02 32.14428 -77.83244 34921 ft 527 kts 142°
2026-04-30 18:04 31.98199 -77.65939 34893 ft 524 kts 142°
2026-04-30 18:06 31.76542 -77.42995 34923 ft 522 kts 142°
2026-04-30 18:08 31.57621 -77.23092 34915 ft 521 kts 142°
2026-04-30 18:10 31.36031 -77.00509 34896 ft 520 kts 142°
2026-04-30 18:11 31.16582 -76.81795 34933 ft 517 kts 145°
2026-04-30 18:13 31.02762 -76.68516 34929 ft 511 kts 145°
2026-04-30 18:14 30.89043 -76.55456 34933 ft 509 kts 145°
2026-04-30 18:15 30.72583 -76.39821 34908 ft 510 kts 144°
2026-04-30 18:16 30.61574 -76.29419 34924 ft 511 kts 144°
2026-04-30 18:17 30.56046 -76.24202 34930 ft 511 kts 144°
2026-04-30 18:18 30.47756 -76.16388 34907 ft 511 kts 144°
2026-04-30 18:18 30.42225 -76.11191 34934 ft 512 kts 144°
2026-04-30 18:19 30.36713 -76.06020 34943 ft 511 kts 144°
2026-04-30 18:19 30.31195 -76.00846 34949 ft 510 kts 144°
2026-04-30 18:20 30.25706 -75.95707 34944 ft 509 kts 144°
2026-04-30 18:20 30.20181 -75.90547 34950 ft 509 kts 144°
2026-04-30 18:21 30.14688 -75.85427 34927 ft 509 kts 144°
2026-04-30 18:21 30.09162 -75.80272 34935 ft 510 kts 144°
2026-04-30 18:22 30.03631 -75.75123 34956 ft 510 kts 144°
2026-04-30 18:22 29.95330 -75.67417 34948 ft 509 kts 144°
2026-04-30 18:23 29.89813 -75.62307 34952 ft 508 kts 144°
2026-04-30 18:23 29.84330 -75.57238 34953 ft 508 kts 144°
2026-04-30 18:24 29.76044 -75.49586 34954 ft 508 kts 144°
2026-04-30 18:25 29.70517 -75.44484 34952 ft 508 kts 144°
2026-04-30 18:25 29.62249 -75.36866 34969 ft 507 kts 145°
2026-04-30 18:26 29.54013 -75.29306 34942 ft 506 kts 144°
2026-04-30 18:27 29.45787 -75.21767 34955 ft 506 kts 144°
2026-04-30 18:28 29.37519 -75.14204 34965 ft 507 kts 144°
2026-04-30 18:28 29.29217 -75.06634 34972 ft 507 kts 144°
2026-04-30 18:29 29.18270 -74.96659 34980 ft 503 kts 144°
2026-04-30 18:30 29.07333 -74.86738 34982 ft 501 kts 144°
2026-04-30 18:31 28.99135 -74.79317 34979 ft 500 kts 144°
2026-04-30 18:32 28.90973 -74.71944 34962 ft 500 kts 144°
2026-04-30 18:33 28.82768 -74.64534 34968 ft 500 kts 144°
2026-04-30 18:33 28.74603 -74.57190 34978 ft 500 kts 144°
2026-04-30 18:34 28.66379 -74.49823 34988 ft 501 kts 144°
2026-04-30 18:35 28.60894 -74.44900 34967 ft 500 kts 144°
2026-04-30 18:35 28.55465 -74.40022 34992 ft 500 kts 144°
2026-04-30 18:36 28.47260 -74.32686 35007 ft 499 kts 144°
2026-04-30 18:37 28.39075 -74.25392 35007 ft 497 kts 144°
2026-04-30 18:37 28.33659 -74.20564 35000 ft 496 kts 144°
2026-04-30 18:38 28.29132 -74.16534 34986 ft 496 kts 144°
2026-04-30 18:38 28.23629 -74.11825 34988 ft 493 kts 151°
2026-04-30 18:39 28.17762 -74.07839 35000 ft 492 kts 152°
2026-04-30 18:39 28.11866 -74.03845 34995 ft 493 kts 152°
2026-04-30 18:40 28.05981 -73.99864 35010 ft 493 kts 152°
2026-04-30 18:40 28.00110 -73.95898 34988 ft 492 kts 152°
2026-04-30 18:41 27.94217 -73.91918 34996 ft 492 kts 152°
2026-04-30 18:41 27.88326 -73.87947 35002 ft 492 kts 152°
2026-04-30 18:42 27.82460 -73.83991 35004 ft 492 kts 152°
2026-04-30 18:42 27.73624 -73.78050 35001 ft 492 kts 152°
2026-04-30 18:45 27.41327 -73.56443 35011 ft 490 kts 152°
2026-04-30 18:46 27.35452 -73.52525 35001 ft 490 kts 152°
2026-04-30 18:46 27.29590 -73.48626 35010 ft 489 kts 152°
2026-04-30 18:47 27.23740 -73.44736 35009 ft 488 kts 152°
2026-04-30 18:47 27.17924 -73.40883 35012 ft 488 kts 152°
2026-04-30 18:48 27.12072 -73.37000 35012 ft 488 kts 152°
2026-04-30 18:48 27.06219 -73.33111 35010 ft 487 kts 152°
2026-04-30 18:49 27.00408 -73.29263 35004 ft 488 kts 152°
2026-04-30 18:49 26.94557 -73.25397 35002 ft 488 kts 152°
2026-04-30 18:50 26.88687 -73.21530 35003 ft 488 kts 152°
2026-04-30 18:50 26.82821 -73.17666 35004 ft 489 kts 152°
2026-04-30 18:51 26.76995 -73.13830 35007 ft 489 kts 152°
2026-04-30 18:51 26.71117 -73.09960 35008 ft 489 kts 152°
2026-04-30 18:52 26.65285 -73.06124 35010 ft 489 kts 152°
2026-04-30 18:52 26.59414 -73.02274 35010 ft 489 kts 152°
2026-04-30 18:53 26.53530 -72.98421 35005 ft 489 kts 152°
2026-04-30 18:53 26.47686 -72.94602 35011 ft 488 kts 152°
2026-04-30 18:54 26.41810 -72.90766 34997 ft 488 kts 152°
2026-04-30 18:54 26.35933 -72.86928 35002 ft 489 kts 152°
2026-04-30 18:55 26.30093 -72.83114 35008 ft 489 kts 152°
2026-04-30 18:55 26.21262 -72.77360 35011 ft 489 kts 152°
2026-04-30 18:56 26.12469 -72.71649 35012 ft 488 kts 152°
2026-04-30 18:57 26.03685 -72.65940 35017 ft 488 kts 152°
2026-04-30 18:57 25.97808 -72.62137 35021 ft 488 kts 152°
2026-04-30 18:58 25.89018 -72.56462 35007 ft 488 kts 152°
2026-04-30 18:59 25.80211 -72.50763 35003 ft 490 kts 152°
2026-04-30 19:00 25.68460 -72.43184 35035 ft 486 kts 151°
2026-04-30 19:01 25.56812 -72.35700 35030 ft 483 kts 151°
2026-04-30 19:02 25.48122 -72.30117 35024 ft 482 kts 151°
2026-04-30 19:03 25.36615 -72.22760 34995 ft 469 kts 151°
2026-04-30 19:04 25.25349 -72.15561 35002 ft 467 kts 151°
2026-04-30 19:05 25.14117 -72.08386 34994 ft 467 kts 151°
2026-04-30 19:06 25.02825 -72.01241 35004 ft 467 kts 154°
2026-04-30 19:06 24.93542 -71.98530 35009 ft 462 kts 175°
2026-04-30 19:07 24.83922 -71.97240 35016 ft 463 kts 174°
2026-04-30 19:08 24.71099 -71.95512 35011 ft 465 kts 174°
2026-04-30 19:09 24.61467 -71.94222 35016 ft 466 kts 174°
2026-04-30 19:09 24.55018 -71.93354 35020 ft 466 kts 174°
2026-04-30 19:10 24.42153 -71.91639 35019 ft 466 kts 174°
2026-04-30 19:11 24.32522 -71.90352 35032 ft 465 kts 175°
2026-04-30 19:12 24.26097 -71.89492 35029 ft 464 kts 175°
2026-04-30 19:12 24.19720 -71.88634 35034 ft 463 kts 175°
2026-04-30 19:13 24.07148 -71.85994 35027 ft 463 kts 158°
2026-04-30 19:14 24.01235 -71.83153 35031 ft 463 kts 158°
2026-04-30 19:14 23.95329 -71.80341 35023 ft 463 kts 159°
2026-04-30 19:15 23.89453 -71.77543 35020 ft 463 kts 159°
2026-04-30 19:15 23.80611 -71.73337 35029 ft 460 kts 159°
2026-04-30 19:16 23.74763 -71.70558 35030 ft 459 kts 159°
2026-04-30 19:17 23.65957 -71.66375 35030 ft 459 kts 159°
2026-04-30 19:17 23.57170 -71.62207 35023 ft 458 kts 159°
2026-04-30 19:18 23.48410 -71.58058 35017 ft 459 kts 159°
2026-04-30 19:19 23.42545 -71.55281 35023 ft 458 kts 159°
2026-04-30 19:19 23.33815 -71.51160 35023 ft 457 kts 159°
2026-04-30 19:20 23.27967 -71.48406 35022 ft 457 kts 159°
2026-04-30 19:21 23.19244 -71.44296 35010 ft 456 kts 159°
2026-04-30 19:22 23.07582 -71.38809 35013 ft 457 kts 159°
2026-04-30 19:23 22.91052 -71.31047 35010 ft 457 kts 159°
2026-04-30 19:24 22.82326 -71.26958 35009 ft 457 kts 159°
2026-04-30 19:25 22.67705 -71.20133 35012 ft 457 kts 159°
2026-04-30 19:26 22.56030 -71.14688 35000 ft 458 kts 160°
2026-04-30 19:27 22.47234 -71.10585 35001 ft 458 kts 160°
2026-04-30 19:28 22.38451 -71.06502 35009 ft 458 kts 160°
2026-04-30 19:29 22.26762 -71.01074 34992 ft 458 kts 161°
2026-04-30 19:30 22.15051 -70.95642 35004 ft 459 kts 161°
2026-04-30 19:31 22.03294 -70.90209 35004 ft 459 kts 161°
2026-04-30 19:31 21.94523 -70.86155 34982 ft 459 kts 161°
2026-04-30 19:32 21.88651 -70.83440 34988 ft 459 kts 161°
2026-04-30 19:32 21.82756 -70.80722 34991 ft 460 kts 161°
2026-04-30 19:33 21.76860 -70.78014 34991 ft 460 kts 161°
2026-04-30 19:33 21.70994 -70.75314 34998 ft 460 kts 161°
2026-04-30 19:34 21.65097 -70.72601 34997 ft 460 kts 161°
2026-04-30 19:35 21.56248 -70.68534 34986 ft 461 kts 162°
2026-04-30 19:35 21.50365 -70.65836 34988 ft 461 kts 162°
2026-04-30 19:36 21.44447 -70.63122 34991 ft 461 kts 162°
2026-04-30 19:36 21.35603 -70.59079 34993 ft 461 kts 162°
2026-04-30 19:37 21.29686 -70.56365 34996 ft 461 kts 162°
2026-04-30 19:37 21.23801 -70.53675 34977 ft 462 kts 162°
2026-04-30 19:38 21.17863 -70.50973 34983 ft 462 kts 162°
2026-04-30 19:38 21.11967 -70.48287 34986 ft 462 kts 162°
2026-04-30 19:39 21.06037 -70.45583 34993 ft 462 kts 162°
2026-04-30 19:39 21.00138 -70.42890 34991 ft 462 kts 162°
2026-04-30 19:40 20.94214 -70.40195 34972 ft 462 kts 162°
2026-04-30 19:40 20.88312 -70.37517 34980 ft 462 kts 162°
2026-04-30 19:41 20.82381 -70.34824 34983 ft 462 kts 162°
2026-04-30 19:41 20.76457 -70.32138 34988 ft 462 kts 162°
2026-04-30 19:42 20.70570 -70.29465 34984 ft 462 kts 162°
2026-04-30 19:42 20.64648 -70.26777 34989 ft 462 kts 162°
2026-04-30 19:43 20.58714 -70.24094 34978 ft 462 kts 163°
2026-04-30 19:44 20.49872 -70.20095 34980 ft 461 kts 163°
2026-04-30 19:44 20.43948 -70.17419 34985 ft 461 kts 164°
2026-04-30 19:45 20.38074 -70.14770 34989 ft 460 kts 164°
2026-04-30 19:45 20.32167 -70.12107 34986 ft 460 kts 163°
2026-04-30 19:46 20.26296 -70.09459 34985 ft 460 kts 164°
2026-04-30 19:46 20.20400 -70.06802 34988 ft 460 kts 164°
2026-04-30 19:47 20.14497 -70.04125 34988 ft 460 kts 163°
2026-04-30 19:47 20.08750 -70.01411 34970 ft 461 kts 162°
2026-04-30 19:47 20.05741 -69.99972 34718 ft 457 kts 162°
2026-04-30 19:48 20.02886 -69.98605 34499 ft 454 kts 162°
2026-04-30 19:48 20.00009 -69.97233 34273 ft 452 kts 163°
2026-04-30 19:48 19.97145 -69.95876 34048 ft 450 kts 163°
2026-04-30 19:48 19.94292 -69.94531 33786 ft 447 kts 164°
2026-04-30 19:49 19.91456 -69.93198 33526 ft 444 kts 164°
2026-04-30 19:49 19.85804 -69.90539 33015 ft 441 kts 164°
2026-04-30 19:49 19.83037 -69.89238 32766 ft 439 kts 164°
2026-04-30 19:50 19.80268 -69.87853 32517 ft 442 kts 158°
2026-04-30 19:50 19.77676 -69.86045 32262 ft 449 kts 149°
2026-04-30 19:50 19.75272 -69.83925 31904 ft 447 kts 148°
2026-04-30 19:50 19.72884 -69.81805 31424 ft 445 kts 148°
2026-04-30 19:51 19.70507 -69.79702 30940 ft 443 kts 147°
2026-04-30 19:51 19.68137 -69.77612 30478 ft 441 kts 147°
2026-04-30 19:51 19.65780 -69.75538 30007 ft 439 kts 147°
2026-04-30 19:51 19.63434 -69.73470 29507 ft 437 kts 147°
2026-04-30 19:52 19.61139 -69.71441 29052 ft 433 kts 147°
2026-04-30 19:52 19.58831 -69.69399 28631 ft 429 kts 147°
2026-04-30 19:52 19.56543 -69.67379 28203 ft 426 kts 147°
2026-04-30 19:52 19.54269 -69.65378 27762 ft 423 kts 147°
2026-04-30 19:53 19.52011 -69.63391 27360 ft 420 kts 146°
2026-04-30 19:53 19.49768 -69.61415 26946 ft 417 kts 146°
2026-04-30 19:53 19.47566 -69.59475 26539 ft 415 kts 146°
2026-04-30 19:53 19.45341 -69.57516 26131 ft 413 kts 146°
2026-04-30 19:54 19.43132 -69.55572 25711 ft 411 kts 146°
2026-04-30 19:54 19.40949 -69.53655 25281 ft 410 kts 146°
2026-04-30 19:54 19.38750 -69.51725 24854 ft 408 kts 146°
2026-04-30 19:54 19.36584 -69.49826 24417 ft 407 kts 146°
2026-04-30 19:55 19.34396 -69.47907 23975 ft 406 kts 146°
2026-04-30 19:55 19.32229 -69.46004 23522 ft 405 kts 146°
2026-04-30 19:55 19.30056 -69.44096 23022 ft 403 kts 146°
2026-04-30 19:55 19.27903 -69.42204 22577 ft 400 kts 145°
2026-04-30 19:56 19.25760 -69.40322 22114 ft 397 kts 146°
2026-04-30 19:56 19.23667 -69.38483 21675 ft 394 kts 145°
2026-04-30 19:56 19.21564 -69.36638 21276 ft 391 kts 145°
2026-04-30 19:56 19.19478 -69.34808 20830 ft 388 kts 145°
2026-04-30 19:57 19.17401 -69.32988 20381 ft 385 kts 145°
2026-04-30 19:57 19.15340 -69.31185 19940 ft 383 kts 145°
2026-04-30 19:57 19.13288 -69.29391 19499 ft 381 kts 144°
2026-04-30 19:57 19.11246 -69.27603 19059 ft 379 kts 144°
2026-04-30 19:58 19.09220 -69.25831 18625 ft 377 kts 144°
2026-04-30 19:58 19.07202 -69.24068 18180 ft 375 kts 144°
2026-04-30 19:58 19.05217 -69.22333 17714 ft 372 kts 144°
2026-04-30 19:58 19.03230 -69.20597 17285 ft 368 kts 144°
2026-04-30 19:59 19.01262 -69.18876 16858 ft 365 kts 144°
2026-04-30 19:59 18.99317 -69.17176 16435 ft 361 kts 143°
2026-04-30 19:59 18.96071 -69.13226 15767 ft 357 kts 121°
2026-04-30 20:00 18.94903 -69.10921 15420 ft 353 kts 120°
2026-04-30 20:00 18.93739 -69.08635 15021 ft 351 kts 120°
2026-04-30 20:00 18.92575 -69.06358 14636 ft 349 kts 120°
2026-04-30 20:00 18.91436 -69.04134 14266 ft 347 kts 120°
2026-04-30 20:01 18.89152 -68.99664 13443 ft 340 kts 120°
2026-04-30 20:01 18.88032 -68.97472 12843 ft 336 kts 120°
2026-04-30 20:01 18.86937 -68.95336 12244 ft 332 kts 120°
2026-04-30 20:02 18.84096 -68.91733 11226 ft 315 kts 146°
2026-04-30 20:02 18.82309 -68.90411 10675 ft 312 kts 147°
2026-04-30 20:03 18.78780 -68.87872 9989 ft 302 kts 147°
2026-04-30 20:03 18.77044 -68.86630 9992 ft 302 kts 147°
2026-04-30 20:03 18.75343 -68.85385 9717 ft 294 kts 141°
2026-04-30 20:03 18.74045 -68.83832 9584 ft 277 kts 121°
2026-04-30 20:04 18.73285 -68.81996 9338 ft 270 kts 111°
2026-04-30 20:04 18.72659 -68.80177 9017 ft 265 kts 110°
2026-04-30 20:04 18.72038 -68.78350 8589 ft 263 kts 110°
2026-04-30 20:05 18.70819 -68.74740 7706 ft 259 kts 110°
2026-04-30 20:05 18.70216 -68.72954 7287 ft 256 kts 110°
2026-04-30 20:05 18.69030 -68.69460 6891 ft 252 kts 111°
2026-04-30 20:06 18.68198 -68.67863 6776 ft 251 kts 128°
2026-04-30 20:06 18.67124 -68.66435 6584 ft 245 kts 128°
2026-04-30 20:06 18.66069 -68.65034 6303 ft 243 kts 128°
2026-04-30 20:06 18.65023 -68.63645 6018 ft 240 kts 128°
2026-04-30 20:07 18.63999 -68.62282 5730 ft 238 kts 128°
2026-04-30 20:07 18.62975 -68.60918 5435 ft 236 kts 128°
2026-04-30 20:07 18.60950 -68.58228 4867 ft 233 kts 128°
2026-04-30 20:08 18.60283 -68.57345 4680 ft 232 kts 129°
2026-04-30 20:08 18.59021 -68.56313 4381 ft 232 kts 159°
2026-04-30 20:08 18.57469 -68.55836 4150 ft 231 kts 166°
2026-04-30 20:08 18.55899 -68.55477 4001 ft 232 kts 167°
2026-04-30 20:09 18.54373 -68.54983 3692 ft 228 kts 146°
2026-04-30 20:09 18.53401 -68.53735 3392 ft 220 kts 110°
2026-04-30 20:09 18.53593 -68.50749 3003 ft 193 kts 73°
2026-04-30 20:10 18.54351 -68.48100 2509 ft 192 kts 74°
2026-04-30 20:10 18.54729 -68.46748 2007 ft 190 kts 74°
2026-04-30 20:10 18.55094 -68.45424 1559 ft 185 kts 74°
2026-04-30 20:11 18.55739 -68.43047 996 ft 156 kts 73°
2026-04-30 20:11 18.56023 -68.41992 794 ft 144 kts 72°
2026-04-30 20:11 18.56294 -68.40988 609 ft 142 kts 75°
2026-04-30 20:12 18.56834 -68.39007 294 ft 140 kts 73°
2026-04-30 20:12 18.57108 -68.38036 103 ft 140 kts 74°
2026-04-30 20:12 18.57360 -68.37112 51 ft 118 kts 75°
2026-04-30 20:13 18.57517 -68.36536 50 ft 55 kts 74°
2026-04-30 20:13 18.57605 -68.36190 51 ft 40 kts 80°
2026-04-30 20:13 18.57579 -68.35962 51 ft 24 kts 108°
2026-04-30 20:13 18.57478 -68.35848 50 ft 22 kts 162°
2026-04-30 20:14 18.57338 -68.35835 51 ft 20 kts 178°
2026-04-30 20:14 18.57202 -68.35826 51 ft 20 kts 176°
2026-04-30 20:14 18.57057 -68.35816 52 ft 21 kts 176°
2026-04-30 20:14 18.56969 -68.35879 52 ft 16 kts 259°
2026-04-30 20:15 18.56958 -68.35995 52 ft 17 kts 265°
2026-04-30 20:15 18.56949 -68.36111 52 ft 12 kts 265°
2026-04-30 20:15 18.56940 -68.36207 52 ft 14 kts 264°
2026-04-30 20:15 18.56930 -68.36317 52 ft 16 kts 264°
2026-04-30 20:16 18.56919 -68.36442 52 ft 18 kts 265°
2026-04-30 20:16 18.56909 -68.36580 51 ft 20 kts 266°
2026-04-30 20:16 18.56901 -68.36722 51 ft 18 kts 263°
2026-04-30 20:16 18.56836 -68.36773 52 ft 13 kts 171°
2026-04-30 20:17 18.56746 -68.36759 53 ft 13 kts 172°
2026-04-30 20:17 18.56646 -68.36754 52 ft 15 kts 180°
2026-04-30 20:17 18.56555 -68.36756 51 ft 12 kts 182°
2026-04-30 20:17 18.56481 -68.36754 51 ft 8 kts 180°
2026-04-30 20:18 18.56447 -68.36785 51 ft 6 kts 247°
2026-04-30 20:18 18.56444 -68.36800 51 ft 1 kts 264°
2026-04-30 20:18 18.56444 -68.36804 51 ft 0 kts 264°